Location: Brno
(49.2000°N, 16.6330°E)
Time: 22:25:16

RESURS DK-1 - Visible Passes

Search period start: 26 November 2015 00:00
Search period end: 06 December 2015 00:00
Orbit: 559 x 564 km, 69.9° (Epoch: 26 November)

Date Brightness Start Highest point End Pass type
(mag) Time Alt. Az. Time Alt. Az. Time Alt. Az.
26 Nov 3.9 05:04:04 24° N 05:04:04 24° N 05:06:10 10° NNE visible
27 Nov 4.3 05:03:42 18° N 05:03:42 18° N 05:05:07 10° NNE visible
28 Nov 4.6 05:03:14 14° N 05:03:14 14° N 05:04:02 10° N visible
29 Nov 4.9 05:02:41 11° N 05:02:41 11° N 05:02:55 10° N visible
